This is the latest recevied weather packets stored in our database for station/object N3WMC. If no packets are shown the sender has not sent any weather packets the latest 10 day(s).
| Time | Temp. | Humidity | Pressure | Rain* | Wind** | Luminosity | Snow |
|---|---|---|---|---|---|---|---|
| 1777744015 | 6.67° C | 80% | 1016.4 hPa | 0 mm | - | 179 W/m² | - |
| 1777743710 | 6.11° C | 82% | 1016.5 hPa | 0 mm | - | 191 W/m² | - |
| 1777743408 | 6.11° C | 82% | 1016.6 hPa | 0 mm | - | 186 W/m² | - |
| 1777743106 | 6.11° C | 82% | 1016.8 hPa | 0 mm | - | 157 W/m² | - |
| 1777742802 | 6.11° C | 82% | 1016.7 hPa | 0 mm | - | 121 W/m² | - |
| 1777742499 | 6.11° C | 82% | 1016.5 hPa | 0 mm | - | 76 W/m² | - |
| 1777742194 | 6.11° C | 82% | 1016.5 hPa | 0 mm | - | 90 W/m² | - |
| 1777741891 | 6.11° C | 81% | 1016.5 hPa | 0 mm | - | 91 W/m² | - |
| 1777741589 | 6.11° C | 81% | 1016.7 hPa | 0 mm | - | 94 W/m² | - |
| 1777741280 | 6.11° C | 81% | 1016.5 hPa | 0 mm | - | 98 W/m² | - |
| 1777740977 | 6.11° C | 80% | 1016.5 hPa | 0 mm | - | 94 W/m² | - |
| 1777740674 | 6.67° C | 79% | 1016.4 hPa | 0 mm | - | 89 W/m² | - |
| 1777740370 | 6.67° C | 80% | 1016.1 hPa | 0 mm | - | 98 W/m² | - |
| 1777740067 | 6.67° C | 81% | 1016.5 hPa | 0 mm | - | 104 W/m² | - |
| 1777739763 | 6.11° C | 82% | 1016.4 hPa | 0 mm | - | 128 W/m² | - |
| 1777739460 | 6.11° C | 82% | 1016.3 hPa | 0 mm | - | 161 W/m² | - |
| 1777739157 | 6.67° C | 84% | 1016.5 hPa | 0 mm | - | 136 W/m² | - |
| 1777738854 | 6.67° C | 82% | 1016.6 hPa | 0 mm | - | 151 W/m² | - |
| 1777738551 | 6.11° C | 83% | 1016.4 hPa | 0 mm | - | 205 W/m² | - |
| 1777738248 | 6.67° C | 85% | 1016.4 hPa | 0 mm | - | 462 W/m² | - |
| 1777737946 | 6.11° C | 84% | 1016.4 hPa | 0 mm | - | 327 W/m² | - |
| 1777737644 | 6.11° C | 85% | 1016.5 hPa | 0 mm | - | 222 W/m² | - |
| 1777737343 | 6.11° C | 87% | 1016.6 hPa | 0 mm | - | 255 W/m² | - |
| 1777737039 | 5.56° C | 87% | 1016.5 hPa | 0 mm | - | 185 W/m² | - |
| 1777736735 | 5.56° C | 88% | 1016.6 hPa | 0 mm | - | 79 W/m² | - |
* Rain latest hour (hover to see other rain measurements)
** Current wind speed in m/s (hover to see current wind gust speed)